Аэропорт
Угольный (UHMA)

 UHMA / DYR
ЗЦ Хабаровск
Магадан (UHMM)
Магадан (UHMM)
 64.73490, 177.74100  / 194 ft

 UHMA 191100Z 14003MPS 110V170 CAVOK 21/07 Q1013 R01/////// NOSIG RMK END R01/10004MPS QFE756/1008

UHMA_AIP_0217
показать схемы
Название сценария Тип сценария Flight Simulator 9 Flight Simulator X Prepar3D v2 Prepar3D v3 Prepar3D v4 xPlane
uhma-scenery-fs9-1003 бесплатный
uhma-scenery-fsx-1308 бесплатный


2019 © VATRUS division (Privacy Policy)